Date,TemperatureHighF,TemperatureAvgF,TemperatureLowF,DewpointHighF,DewpointAvgF,DewpointLowF,HumidityHigh,HumidityAvg,HumidityLow,PressureMaxIn,PressureMinIn,WindSpeedMaxMPH,WindSpeedAvgMPH,GustSpeedMaxMPH,PrecipitationSumIn
2013-1-1,50,48,44,50,37,19,98,72,31,29.20,29.06,19,19,19,0.00
2013-1-2,51,46,41,50,39,28,98,78,43,29.29,29.03,19,19,19,0.00
2013-1-3,47,40,33,38,33,26,93,76,53,29.38,29.23,19,9,19,0.00
2013-1-4,52,40,30,29,19,10,83,48,23,29.44,29.29,15,4,15,0.00
2013-1-5,53,41,31,25,17,13,51,38,24,29.50,29.32,9,3,9,0.00
2013-1-6,56,46,42,37,29,23,77,53,36,29.32,29.12,10,2,10,0.00
2013-1-7,56,44,35,26,23,20,62,45,27,29.53,29.32,13,3,13,0.00
2013-1-8,60,47,33,35,30,24,75,53,33,29.56,29.47,11,2,11,0.00
2013-1-9,69,56,41,47,40,34,81,58,36,29.56,29.47,0,0,0,0.00
2013-1-10,65,58,52,48,38,25,81,53,23,29.62,29.50,4,2,4,0.00
2013-1-11,52,46,42,49,43,34,98,90,52,29.53,29.29,4,4,4,0.00
2013-1-12,70,58,47,62,56,46,98,92,72,29.32,29.23,8,3,8,0.00
2013-1-13,75,67,61,60,56,50,92,71,43,29.26,29.17,15,4,15,0.00
2013-1-14,66,64,63,64,60,55,98,85,71,29.26,29.20,12,3,12,0.00
2013-1-15,65,46,43,61,45,42,98,97,85,29.35,29.17,12,6,12,0.00
2013-1-16,53,46,40,53,45,40,98,98,97,29.20,29.06,7,4,7,0.00
2013-1-17,52,45,33,52,45,33,98,98,93,29.26,28.97,21,6,21,0.00
2013-1-18,49,38,32,34,24,14,98,62,28,29.62,29.26,11,4,11,0.00
2013-1-19,58,43,29,24,20,12,70,42,17,29.59,29.26,8,3,8,0.00
2013-1-20,64,50,39,30,23,18,52,35,18,29.26,29.12,5,5,5,0.00
2013-1-21,61,48,36,30,20,7,63,34,19,29.23,29.00,5,5,5,0.00
2013-1-22,42,35,29,10,-2,-7,30,21,17,29.35,29.09,8,5,8,0.00
2013-1-23,43,33,22,13,0,-11,40,24,18,29.44,29.12,14,3,14,0.00
2013-1-24,42,34,24,22,6,-9,61,33,18,29.56,29.06,23,6,23,0.00
2013-1-25,26,24,22,25,9,-9,97,58,22,29.56,29.17,8,3,8,0.00
2013-1-26,45,32,25,34,28,24,98,85,49,29.47,29.14,8,2,8,0.00
2013-1-27,46,34,26,30,20,16,94,57,38,29.68,29.47,13,3,13,0.83
2013-1-28,50,43,35,49,31,22,97,65,39,29.56,29.35,8,3,8,0.00
2013-1-29,74,60,47,56,50,46,98,74,42,29.35,29.17,4,4,4,0.00
2013-1-30,73,66,59,64,59,50,96,78,47,29.20,28.55,10,8,10,0.00
2013-1-31,59,46,38,50,20,6,82,40,19,29.12,28.64,10,10,10,0.00
2013-2-1,41,36,26,20,4,-7,42,27,18,29.47,29.00,24,7,24,0.00
2013-2-2,45,35,22,32,4,-5,75,29,17,29.47,29.09,22,4,22,0.00
2013-2-3,51,41,36,34,24,10,89,54,21,29.09,28.94,18,5,18,0.00
2013-2-4,53,41,30,20,15,10,53,35,18,29.23,29.09,11,3,11,0.00
2013-2-5,64,49,40,26,22,18,48,36,18,29.09,28.97,15,4,15,0.00
2013-2-6,67,52,41,29,19,6,59,30,12,29.35,29.06,12,3,12,0.00
2013-2-7,45,41,37,40,31,16,98,72,31,29.41,29.09,15,6,15,0.00
2013-2-8,60,44,37,41,34,18,98,71,31,29.20,28.94,18,7,18,0.00
2013-2-9,60,44,33,20,14,4,55,32,14,29.47,29.17,15,4,15,0.00
2013-2-10,57,44,32,37,15,7,73,32,15,29.56,29.29,13,4,13,0.00
2013-2-11,62,56,45,60,54,37,98,93,73,29.29,29.06,16,5,16,0.00
2013-2-12,63,54,45,53,26,12,98,42,16,29.20,29.03,3,3,3,0.00
2013-2-13,52,45,42,47,41,22,98,86,31,29.06,28.76,3,3,3,0.00
2013-2-14,55,44,34,32,24,16,75,46,23,29.17,28.97,3,3,3,0.00
2013-2-15,66,50,37,34,26,14,82,45,15,29.20,29.00,15,4,15,0.00
2013-2-16,46,36,30,35,27,9,98,74,40,29.09,28.91,15,3,15,0.00
2013-2-17,42,32,24,10,2,-4,45,29,18,29.35,29.03,23,6,23,0.00
2013-2-18,58,40,23,18,9,2,47,30,15,29.47,29.32,19,3,19,0.00
2013-2-19,48,42,37,46,32,16,98,71,40,29.32,28.94,19,5,19,0.00
2013-2-20,56,43,32,17,7,-1,39,23,15,29.23,29.06,15,4,15,0.00
2013-2-21,62,45,30,17,6,-3,35,22,14,29.35,29.17,12,4,12,0.00
2013-2-22,44,36,34,36,32,14,98,87,32,29.44,29.17,13,4,13,0.00
2013-2-23,43,39,35,43,38,34,98,98,98,29.23,28.91,2,2,2,0.00
2013-2-24,66,51,42,48,30,13,98,56,15,29.14,28.88,2,2,2,0.00
2013-2-25,47,39,34,20,16,14,52,41,27,29.32,29.12,10,2,10,0.00
2013-2-26,54,41,33,54,37,17,98,88,46,29.20,28.67,20,7,20,0.00
2013-2-27,61,49,41,41,35,28,98,64,33,28.91,28.73,15,4,15,0.00
2013-2-28,50,43,36,33,23,16,78,48,27,28.97,28.82,18,5,18,0.00
2013-3-1,48,41,32,25,22,18,69,47,33,29.03,28.94,13,4,13,0.00
2013-3-2,49,40,33,23,18,13,55,42,30,29.03,28.91,13,3,13,0.00
2013-3-3,49,37,29,15,11,6,45,34,21,29.09,28.94,17,5,17,0.00
2013-3-4,56,40,26,11,7,2,47,27,15,29.23,29.06,18,4,18,0.00
2013-3-5,47,44,40,46,30,7,98,63,20,29.17,28.67,20,3,20,0.00
2013-3-6,51,41,36,44,23,15,98,52,27,29.14,28.64,29,8,29,0.00
2013-3-7,57,43,34,25,21,17,64,43,25,29.35,29.14,17,5,17,0.00
2013-3-8,59,45,34,20,16,10,51,34,17,29.41,29.26,17,6,17,0.00
2013-3-9,69,50,34,26,20,14,53,33,15,29.47,29.32,14,3,14,0.00
2013-3-10,73,56,40,27,21,14,51,28,14,29.41,29.29,13,3,13,0.00
2013-3-11,70,57,45,54,36,10,86,49,21,29.32,29.00,24,5,24,0.00
2013-3-12,70,60,49,60,45,18,98,65,22,29.09,28.91,18,7,18,0.00
2013-3-13,58,47,36,28,16,6,65,31,17,29.26,29.06,25,6,25,0.00
2013-3-14,56,42,30,15,8,2,40,25,15,29.35,29.20,21,6,21,0.00
2013-3-15,64,50,33,29,16,3,40,26,16,29.29,29.00,23,4,23,0.00
2013-3-16,80,66,54,39,33,28,44,31,17,29.00,28.79,22,6,22,0.00
2013-3-17,62,54,42,50,39,32,84,58,35,29.26,28.97,18,6,18,0.00
2013-3-18,42,40,38,41,39,37,98,97,83,29.29,28.97,16,6,16,0.00
2013-3-19,68,51,39,46,25,4,98,52,12,29.14,28.94,24,6,24,0.00
2013-3-20,61,49,42,22,7,2,37,18,14,29.20,28.88,19,4,19,0.00
2013-3-21,50,40,30,25,8,-3,50,28,16,29.09,28.85,20,6,20,0.00
2013-3-22,56,40,24,11,6,3,43,26,15,29.14,29.06,15,4,15,0.00
2013-3-23,61,48,42,26,16,10,48,28,16,29.14,29.00,8,2,8,0.00
2013-3-24,45,40,36,39,34,25,98,83,46,29.03,28.64,23,6,23,0.00
2013-3-25,47,40,36,38,25,13,98,61,27,28.97,28.64,27,7,27,0.00
2013-3-26,50,41,35,22,18,15,53,40,28,29.26,28.94,17,6,17,0.00
2013-3-27,53,42,33,20,15,7,57,35,18,29.35,29.23,20,6,20,0.00
2013-3-28,60,45,33,18,13,8,45,29,14,29.38,29.23,20,5,20,0.00
2013-3-29,66,50,34,24,16,8,49,28,13,29.44,29.26,15,3,15,0.00
2013-3-30,75,58,45,38,28,20,53,34,16,29.35,29.17,13,3,13,0.00
2013-3-31,71,57,49,56,49,38,98,77,38,29.20,28.91,15,4,17,0.00
2013-4-1,74,62,54,55,38,20,98,51,14,29.12,28.94,22,4,22,0.00
2013-4-2,67,53,40,29,19,7,53,28,13,29.26,29.09,13,4,13,0.00
2013-4-3,67,53,40,14,8,0,21,16,12,29.38,29.26,13,4,15,0.00
2013-4-4,50,41,37,38,25,3,98,61,17,29.44,29.03,19,6,19,0.00
2013-4-5,69,51,37,44,34,23,98,61,22,29.14,29.00,5,5,5,0.00
2013-4-6,72,57,47,29,22,16,44,27,14,29.35,29.12,5,5,5,0.00
2013-4-7,75,60,43,44,33,24,74,39,16,29.38,29.20,5,5,5,0.00
2013-4-8,84,69,58,53,44,35,81,46,20,29.32,29.17,14,5,14,0.00
2013-4-9,91,74,60,53,46,35,74,42,15,29.32,29.17,13,4,13,0.00
2013-4-10,92,77,66,57,47,39,74,37,17,29.26,29.06,4,4,4,0.00
2013-4-11,84,72,64,62,54,43,84,56,24,29.14,28.91,4,4,4,0.00
2013-4-12,84,73,62,66,49,20,97,52,14,28.97,28.76,4,4,4,0.00
2013-4-13,80,66,54,31,25,18,36,23,12,29.14,28.97,15,3,15,0.00
2013-4-14,86,68,52,48,29,20,56,25,11,29.23,29.12,16,3,16,0.00
2013-4-15,72,64,58,57,51,44,97,63,40,29.35,29.12,16,4,16,0.00
2013-4-16,83,69,58,59,52,44,93,57,28,29.41,29.29,11,3,11,0.00
2013-4-17,92,73,61,61,53,40,91,54,18,29.38,29.23,14,3,14,0.00
2013-4-18,86,72,62,60,50,38,84,51,20,29.35,29.12,17,4,17,0.00
2013-4-19,82,70,58,64,60,48,92,72,39,29.14,28.88,5,5,5,0.00
2013-4-20,69,57,46,50,24,14,74,31,15,29.38,29.00,5,5,5,0.00
2013-4-21,66,54,45,32,26,22,53,36,23,29.59,29.35,5,5,5,0.00
2013-4-22,67,53,38,33,24,10,73,37,12,29.56,29.35,18,6,18,0.00
2013-4-23,76,58,47,48,41,33,91,57,23,29.38,29.23,8,4,8,0.00
2013-4-24,78,65,54,52,46,39,91,53,26,29.29,29.12,18,5,18,0.00
2013-4-25,78,64,53,53,29,18,69,31,13,29.41,29.14,11,3,11,0.00
2013-4-26,81,64,49,31,22,16,37,21,12,29.56,29.41,0,0,0,0.00
2013-4-27,76,63,57,49,33,23,68,36,15,29.47,29.38,0,0,0,0.00
2013-4-28,60,57,54,56,52,46,98,83,66,29.38,29.17,0,0,0,0.00
2013-4-29,77,64,57,61,57,49,98,81,40,29.17,29.06,10,1,10,0.00
2013-4-30,68,62,57,61,56,50,98,81,53,29.32,29.12,1,1,1,0.00
2013-5-1,64,59,56,59,55,52,98,88,68,29.44,29.29,1,1,1,0.00
2013-5-2,64,58,54,57,55,53,98,90,69,29.47,29.35,1,1,1,0.00
2013-5-3,70,59,50,53,44,32,98,61,34,29.38,29.23,19,5,19,0.00
2013-5-4,66,56,49,52,42,0,90,64,34,29.32,29.14,18,7,18,0.00
2013-5-5,57,54,50,56,49,42,98,84,69,29.17,29.03,23,6,23,0.00
2013-5-6,73,62,56,65,58,55,98,87,54,29.09,28.94,19,5,19,0.00
2013-5-7,74,62,54,56,47,31,98,65,22,29.09,28.97,12,3,12,0.00
2013-5-8,73,63,55,56,51,42,91,68,35,29.14,29.03,11,2,11,0.00
2013-5-9,87,71,56,58,47,34,98,50,16,29.20,29.12,12,3,12,0.00
2013-5-10,89,76,62,51,46,39,63,38,19,29.20,29.06,2,2,2,0.00
2013-5-11,85,74,66,63,53,44,68,50,26,29.09,28.94,2,2,2,0.00
2013-5-12,78,66,56,60,35,16,89,37,13,29.14,28.94,2,2,2,0.00
2013-5-13,72,61,50,26,18,9,32,20,13,29.32,29.12,14,4,14,0.00
2013-5-14,78,62,44,30,24,18,50,25,13,29.38,29.17,13,3,13,0.00
2013-5-15,94,76,60,48,41,28,45,29,17,29.20,29.06,15,4,15,0.00
2013-5-16,90,78,67,53,45,30,58,34,13,29.14,29.06,15,4,15,0.00
2013-5-17,95,79,66,61,48,31,78,38,11,29.23,29.12,11,3,11,0.00
2013-5-18,78,71,64,64,57,45,97,64,37,29.29,29.17,12,2,12,0.00
2013-5-19,78,69,64,69,65,60,98,87,58,29.29,29.20,13,3,13,0.00
2013-5-20,82,72,68,70,66,0,100,84,47,29.26,29.12,14,3,14,0.00
2013-5-21,89,76,68,69,65,50,98,73,32,29.23,29.09,14,3,14,0.00
2013-5-22,88,76,67,69,60,50,91,63,29,29.17,29.03,16,4,16,0.00
2013-5-23,82,72,64,67,61,52,98,71,40,29.12,28.97,12,3,12,0.00
2013-5-24,74,66,54,62,38,18,92,43,14,29.32,28.97,21,5,21,0.00
2013-5-25,80,64,49,36,25,18,44,25,12,29.44,29.23,16,4,16,0.00
2013-5-26,81,67,57,36,28,20,35,24,12,29.41,29.29,13,3,13,0.00
2013-5-27,89,74,59,56,36,27,64,28,13,29.38,29.29,16,3,16,0.00
2013-5-28,90,76,64,60,53,43,87,50,21,29.38,29.29,19,5,19,0.00
2013-5-29,92,78,65,59,50,35,78,42,15,29.38,29.29,24,4,24,0.00
2013-5-30,94,78,66,62,51,39,83,45,17,29.44,29.29,14,3,14,0.00
2013-5-31,94,79,68,66,54,40,90,49,17,29.41,29.23,18,4,18,0.00
2013-6-1,92,80,69,65,54,40,86,47,18,29.29,29.14,19,5,19,0.00
2013-6-2,91,78,68,70,57,44,97,55,21,29.20,29.03,17,4,17,0.00
2013-6-3,90,74,68,70,64,48,98,77,28,29.09,28.97,14,3,14,0.00
2013-6-4,84,73,68,65,58,49,89,61,31,29.23,29.06,13,4,13,0.00
2013-6-5,80,72,67,65,55,47,90,58,32,29.26,29.12,13,4,13,0.00
2013-6-6,76,70,67,72,68,64,98,94,80,29.14,28.94,115,4,115,0.00
2013-6-7,76,70,68,72,68,64,98,93,68,29.00,28.73,12,4,12,0.00
2013-6-8,88,75,65,68,60,50,98,66,29,29.23,28.97,10,2,11,0.00
2013-6-9,94,79,69,72,61,47,85,59,22,29.32,29.17,32,3,32,0.00
2013-6-10,86,74,70,72,67,58,92,79,39,29.23,29.00,20,5,20,0.00
2013-6-11,89,78,69,66,56,42,90,53,21,29.14,29.06,14,4,14,0.00
2013-6-12,96,82,68,65,57,49,71,45,25,29.14,29.00,13,3,13,0.00
2013-6-13,100,82,70,70,59,30,79,52,12,29.03,28.79,42,5,42,0.00
2013-6-14,86,75,64,55,40,29,57,31,13,29.14,28.91,14,4,14,0.00
2013-6-15,91,77,64,54,44,30,69,34,12,29.29,29.14,14,3,14,0.00
2013-6-16,91,79,67,56,51,42,64,40,19,29.29,29.12,18,5,18,0.00
2013-6-17,93,78,71,68,58,45,81,52,20,29.17,29.06,12,4,12,0.00
2013-6-18,89,75,69,69,63,52,95,71,31,29.09,28.91,20,4,20,0.00
2013-6-19,87,75,67,68,58,0,94,60,26,29.26,29.03,12,3,12,0.00
2013-6-20,87,75,66,64,53,41,94,54,21,29.38,29.26,57,4,57,0.00
2013-6-21,87,74,62,55,44,29,68,38,13,29.41,29.32,13,4,13,0.00
2013-6-22,88,75,68,66,59,48,85,61,29,29.35,29.23,14,4,14,0.00
2013-6-23,93,79,69,70,61,51,89,59,27,29.35,29.26,10,2,10,0.00
2013-6-24,95,78,71,71,62,52,90,62,24,29.35,29.23,18,5,18,0.00
2013-6-25,100,79,71,72,62,45,89,62,17,29.26,29.12,20,3,20,0.00
2013-6-26,94,78,69,68,62,46,90,65,24,29.17,29.06,17,3,17,0.00
2013-6-27,92,79,69,71,64,54,96,66,29,29.09,28.88,17,4,17,0.00
2013-6-28,95,80,72,72,63,49,95,63,22,28.91,28.76,23,4,23,0.00
2013-6-29,89,78,70,69,64,40,95,66,29,28.88,28.76,15,3,15,0.00
2013-6-30,86,75,69,69,66,57,97,75,39,29.00,28.85,13,4,13,0.00
2013-7-1,85,75,70,68,64,55,95,71,37,29.14,28.97,10,3,10,0.00
2013-7-2,79,73,71,70,68,63,94,85,60,29.35,29.14,12,4,12,0.00
2013-7-3,87,78,72,73,68,58,97,74,39,29.38,29.26,12,4,13,0.00
2013-7-4,90,79,72,73,66,54,94,67,30,29.44,29.32,15,3,15,0.00
2013-7-5,92,78,72,75,67,54,94,71,30,29.41,29.32,15,3,15,22.69
2013-7-6,95,80,70,72,63,49,94,63,23,29.38,29.23,11,3,11,0.00
2013-7-7,92,79,72,70,63,52,88,62,27,29.35,29.20,12,3,12,0.00
2013-7-8,95,80,73,71,63,44,89,62,19,29.35,29.23,8,3,8,0.00
2013-7-9,94,81,73,71,63,53,88,60,27,29.32,29.20,9,3,9,0.00
2013-7-10,96,80,73,72,64,50,92,63,22,29.26,29.06,10,3,10,0.00
2013-7-11,79,75,72,72,70,66,91,83,69,29.12,29.00,13,3,58,0.00
2013-7-12,80,74,69,70,64,55,92,74,47,29.14,29.00,12,4,12,0.00
2013-7-13,84,74,68,71,66,58,94,79,43,29.32,29.12,17,4,17,0.00
2013-7-14,90,78,72,71,65,51,95,68,28,29.44,29.29,15,5,15,0.00
2013-7-15,95,81,70,72,60,47,92,56,21,29.47,29.38,10,3,10,0.00
2013-7-16,102,86,72,68,56,44,81,42,15,29.47,29.32,9,2,9,0.00
2013-7-17,98,85,76,66,60,47,71,46,19,29.41,29.23,11,3,11,0.00
2013-7-18,102,84,74,71,62,44,80,53,15,29.32,29.17,2,2,2,0.00
2013-7-19,94,84,76,70,61,52,81,50,26,29.26,29.12,2,2,2,0.00
2013-7-20,93,81,74,69,63,52,78,58,28,29.20,29.06,2,2,2,0.00
2013-7-21,94,79,73,70,64,51,86,63,25,29.17,29.06,10,3,10,0.00
2013-7-22,89,79,73,69,63,52,88,62,29,29.12,28.97,13,3,13,0.00
2013-7-23,94,83,73,69,57,42,86,47,17,29.00,28.88,16,4,16,0.00
2013-7-24,101,84,69,66,54,34,79,44,10,29.03,28.88,13,3,13,0.00
2013-7-25,84,75,68,64,56,48,81,54,29,29.17,28.97,11,4,11,0.00
2013-7-26,93,78,68,63,50,39,78,43,17,29.26,29.12,9,3,10,0.00
2013-7-27,85,73,69,67,62,51,90,72,32,29.20,29.06,17,3,17,0.00
2013-7-28,92,78,69,67,60,44,88,61,21,29.17,29.06,13,3,13,0.00
2013-7-29,91,78,68,68,53,38,89,48,18,29.32,29.12,11,3,11,0.00
2013-7-30,94,78,67,60,48,36,71,39,14,29.35,29.26,9,2,9,0.00
2013-7-31,87,78,71,68,58,39,88,55,19,29.29,29.12,1,1,1,0.00
2013-8-1,93,79,71,68,62,50,87,61,24,29.14,29.00,1,1,1,0.00
2013-8-2,97,82,72,71,54,40,89,45,16,29.17,29.09,1,1,1,0.00
2013-8-3,95,83,75,70,59,47,83,49,20,29.17,29.06,7,2,7,0.00
2013-8-4,92,80,72,64,50,30,71,40,12,29.17,29.06,3,3,3,0.00
2013-8-5,89,78,68,58,48,39,69,39,18,29.23,29.12,3,3,3,0.00
2013-8-6,79,73,67,64,55,46,86,54,33,29.23,29.12,3,3,3,0.00
2013-8-7,91,79,71,64,54,40,77,46,18,29.23,29.14,9,3,9,0.00
2013-8-8,92,79,72,67,59,48,80,52,24,29.23,29.12,10,3,10,0.00
2013-8-9,96,80,72,69,62,46,81,58,22,29.20,29.12,18,4,18,0.00
2013-8-10,95,80,73,70,64,45,85,62,22,29.26,29.17,14,4,14,0.00
2013-8-11,98,83,72,68,59,44,85,51,17,29.26,29.14,8,3,8,0.00
2013-8-12,100,84,74,70,58,42,84,47,15,29.20,29.09,9,3,9,0.00
2013-8-13,93,79,72,69,61,48,84,59,27,29.09,28.97,12,4,12,0.00
2013-8-14,80,73,66,66,48,35,78,45,21,29.20,29.00,13,4,13,0.00
2013-8-15,80,68,61,53,43,30,71,44,18,29.32,29.20,14,4,14,0.00
2013-8-16,75,66,60,54,47,40,77,52,30,29.32,29.20,10,3,10,0.00
2013-8-17,68,65,62,65,59,51,91,83,63,29.32,29.23,10,4,10,0.00
2013-8-18,87,73,66,66,59,48,92,67,29,29.35,29.23,10,3,10,0.00
2013-8-19,78,70,66,67,63,54,91,79,45,29.32,29.23,8,2,8,0.00
2013-8-20,86,75,66,68,59,48,89,62,29,29.35,29.23,8,1,8,0.00
2013-8-21,89,76,72,76,66,52,89,74,29,29.38,29.23,8,2,8,0.00
2013-8-22,94,79,70,69,60,43,90,58,18,29.29,29.12,8,3,8,0.00
2013-8-23,93,77,68,65,57,43,83,55,19,29.23,29.09,10,4,10,0.00
2013-8-24,86,74,64,59,46,28,82,43,13,29.44,29.23,17,5,17,0.00
2013-8-25,84,72,62,58,44,28,80,42,14,29.53,29.41,12,3,12,0.00
2013-8-26,92,74,59,53,40,24,74,35,9,29.44,29.23,8,2,8,0.00
2013-8-27,95,79,66,64,48,39,64,37,17,29.26,29.12,9,3,9,0.00
2013-8-28,90,80,73,66,58,48,78,50,24,29.14,29.00,6,2,6,0.00
2013-8-29,92,82,74,66,57,46,74,46,21,29.14,29.00,2,2,2,0.00
2013-8-30,97,80,69,65,50,27,87,45,9,29.23,29.06,2,2,2,0.00
2013-8-31,94,80,70,67,55,43,82,46,18,29.12,29.00,2,2,2,0.00
2013-9-1,94,79,73,68,60,43,84,57,19,29.06,28.94,13,3,13,0.00
2013-9-2,93,80,71,68,59,43,87,54,20,29.06,28.94,10,2,10,0.00
2013-9-3,96,82,73,69,56,42,84,47,17,29.12,28.94,12,3,12,0.00
2013-9-4,94,79,68,56,47,31,56,36,11,29.23,29.09,1,1,1,0.00
2013-9-5,94,79,68,62,43,24,76,36,9,29.26,29.17,1,1,1,0.00
2013-9-6,88,75,66,46,38,28,44,29,13,29.32,29.20,1,1,1,0.00
2013-9-7,90,75,64,55,45,34,72,39,15,29.26,29.12,9,2,9,0.00
2013-9-8,94,79,67,60,46,25,77,36,9,29.17,29.06,12,3,12,0.00
2013-9-9,95,80,69,56,46,31,61,35,11,29.29,29.14,10,3,10,0.00
2013-9-10,96,82,71,65,49,31,80,38,11,29.38,29.29,8,3,8,0.00
2013-9-11,96,81,72,52,46,31,48,31,11,29.35,29.20,4,4,4,0.00
2013-9-12,96,81,72,60,50,37,65,37,14,29.23,28.94,4,4,4,0.00
2013-9-13,90,77,66,62,38,22,71,30,10,29.06,28.91,4,4,4,0.00
2013-9-14,83,68,58,41,32,22,45,28,11,29.26,29.03,13,4,13,0.00
2013-9-15,88,71,56,48,40,27,69,36,13,29.35,29.23,8,3,8,0.00
2013-9-16,91,77,68,66,47,24,81,42,9,29.32,29.17,4,4,4,0.00
2013-9-17,80,69,59,49,35,20,63,33,12,29.44,29.32,4,4,4,0.00
2013-9-18,80,65,53,46,34,20,74,37,12,29.44,29.29,4,4,4,0.00
2013-9-19,85,70,59,47,38,26,48,32,13,29.32,29.20,8,3,8,0.00
2013-9-20,86,73,67,62,49,38,80,46,21,29.23,29.09,4,2,4,0.00
2013-9-21,82,70,64,65,59,47,83,69,30,29.09,28.88,4,4,4,0.00
2013-9-22,81,69,62,59,42,26,86,45,14,29.03,28.82,4,4,4,0.00
2013-9-23,80,66,55,48,37,24,69,39,15,29.20,29.03,12,4,12,0.00
2013-9-24,86,68,59,46,38,22,62,37,11,29.23,29.06,3,3,3,0.00
2013-9-25,78,67,59,54,44,32,74,48,20,29.12,29.00,3,3,3,0.00
2013-9-26,82,68,60,56,40,22,81,42,12,29.17,29.03,3,3,3,0.00
2013-9-27,79,65,55,50,38,24,79,42,15,29.32,29.17,13,4,13,0.00
2013-9-28,75,63,54,49,37,23,79,43,16,29.41,29.29,3,3,3,0.00
2013-9-29,78,64,56,50,38,20,77,45,13,29.32,29.17,3,3,3,0.00
2013-9-30,85,67,55,50,37,22,74,39,11,29.23,29.12,3,3,3,0.00
2013-10-1,88,72,58,50,38,23,73,34,10,29.26,29.14,10,4,10,0.00
2013-10-2,91,75,62,55,38,23,76,33,10,29.29,29.17,6,6,6,0.00
2013-10-3,91,76,65,52,40,24,62,31,10,29.29,29.17,6,6,6,0.00
2013-10-4,95,76,66,59,44,25,78,38,9,29.29,29.17,6,6,6,0.00
2013-10-5,95,79,67,54,42,27,60,32,11,29.29,29.17,8,3,8,0.00
2013-10-6,88,76,67,65,47,28,78,42,13,29.20,29.06,6,3,6,0.00
2013-10-7,76,71,65,66,58,34,84,67,32,29.14,28.97,3,3,3,0.00
2013-10-8,65,61,57,37,30,26,44,32,23,29.32,29.12,3,3,3,0.00
2013-10-9,72,60,54,45,33,26,58,37,19,29.32,29.20,18,5,18,0.00
2013-10-10,67,60,55,56,47,37,82,62,47,29.23,29.06,11,6,11,0.00
2013-10-11,77,67,61,57,48,37,74,53,25,29.12,29.06,6,6,6,0.00
2013-10-12,77,67,59,60,50,36,81,60,24,29.20,29.09,6,6,6,0.00
2013-10-13,69,64,61,58,56,48,86,76,48,29.35,29.17,6,6,6,0.00
2013-10-14,66,62,58,57,54,48,88,76,53,29.38,29.29,15,5,15,0.00
2013-10-15,77,64,54,52,38,20,84,47,13,29.35,29.17,15,3,15,0.00
2013-10-16,81,68,60,55,44,33,76,46,19,29.20,29.06,3,3,3,0.00
2013-10-17,74,67,63,61,53,41,82,62,32,29.09,28.97,3,3,3,0.00
2013-10-18,72,64,56,60,38,22,85,45,16,29.14,29.00,4,3,4,0.00
2013-10-19,69,62,57,56,48,40,81,62,38,29.09,28.97,8,3,8,0.00
2013-10-20,71,57,47,51,28,12,82,39,12,29.23,29.03,13,2,13,0.00
2013-10-21,76,60,47,35,28,18,55,33,13,29.29,29.12,8,2,8,0.00
2013-10-22,68,62,58,56,43,35,86,53,31,29.14,28.91,3,3,3,0.00
2013-10-23,69,59,45,55,28,6,81,40,12,29.14,28.82,3,3,3,0.00
2013-10-24,62,49,38,18,12,7,42,24,14,29.29,29.12,3,3,3,0.00
2013-10-25,58,47,38,20,12,3,41,25,14,29.47,29.29,16,4,16,0.00
2013-10-26,63,47,33,18,11,6,47,26,13,29.44,29.17,18,3,18,0.00
2013-10-27,73,59,46,30,20,12,37,24,11,29.23,29.14,11,3,11,0.00
2013-10-28,72,58,51,42,33,24,63,41,17,29.38,29.20,6,2,6,0.00
2013-10-29,77,62,52,48,38,24,79,45,15,29.47,29.35,2,2,2,0.00
2013-10-30,80,66,57,42,37,26,54,36,15,29.41,29.26,2,2,2,0.00
2013-10-31,73,66,59,56,42,33,67,44,24,29.32,29.00,2,2,2,0.00
2013-11-1,70,67,60,61,56,48,83,69,46,29.06,28.82,14,3,14,0.00
2013-11-2,72,60,52,55,35,10,88,49,12,29.09,28.82,1,1,1,0.00
2013-11-3,65,53,46,19,14,7,30,21,13,29.47,29.06,1,1,1,0.00
2013-11-4,60,48,39,20,12,6,39,25,14,29.65,29.44,1,1,1,0.00
2013-11-5,58,48,37,39,23,12,64,38,22,29.62,29.53,11,3,11,0.00
2013-11-6,77,59,45,42,35,25,76,45,15,29.53,29.26,10,3,10,0.00
2013-11-7,68,59,46,56,34,7,88,44,16,29.26,29.06,13,4,13,0.00
2013-11-8,60,48,36,20,9,1,43,22,14,29.44,29.23,17,3,17,0.00
2013-11-9,61,48,34,19,10,3,42,22,14,29.47,29.29,14,2,14,0.00
2013-11-10,74,58,44,18,13,6,34,18,11,29.35,29.17,17,4,17,0.00
2013-11-11,66,51,35,14,8,0,34,18,13,29.47,29.26,10,2,10,0.00
2013-11-12,61,46,31,29,16,4,81,33,14,29.53,29.12,20,5,20,0.00
2013-11-13,50,35,27,6,3,-2,40,26,16,29.62,29.50,11,3,11,0.00
2013-11-14,60,43,29,10,6,0,38,22,14,29.59,29.41,12,2,12,0.00
2013-11-15,61,50,36,39,16,-3,56,28,14,29.47,29.29,9,2,9,0.00
2013-11-16,68,57,52,51,44,37,84,65,34,29.38,29.29,6,2,6,0.00
2013-11-17,69,61,54,62,51,39,88,73,34,29.32,29.00,11,2,11,0.00
2013-11-18,77,67,52,62,35,7,85,42,11,29.12,28.94,2,2,2,0.00
2013-11-19,58,49,43,10,5,2,20,16,14,29.38,29.09,2,2,2,0.00
2013-11-20,55,44,36,20,9,4,39,24,15,29.56,29.38,2,2,2,0.00
2013-11-21,63,51,41,27,23,19,48,35,23,29.59,29.47,13,3,13,0.00
2013-11-22,71,59,50,54,36,26,76,44,26,29.50,29.20,11,3,11,0.00
2013-11-23,62,56,41,54,27,1,84,41,14,29.32,29.14,15,4,15,0.00
2013-11-24,42,34,28,1,-6,-10,20,17,16,29.62,29.29,20,5,20,0.00
2013-11-25,47,34,23,4,-6,-13,20,18,15,29.62,29.44,11,3,11,0.00
2013-11-26,43,39,32,40,24,-5,88,64,16,29.44,28.73,18,5,18,0.00
2013-11-27,43,43,43,40,40,40,87,87,87,29.26,28.64,17,5,17,0.00
2013-11-28,43,43,43,40,40,40,87,87,87,29.56,29.26,18,3,18,0.00
2013-11-29,43,43,43,40,40,40,87,87,87,29.71,29.53,10,3,10,0.00
2013-11-30,43,43,43,40,40,40,87,87,87,29.74,29.47,10,3,11,0.00
2013-12-1,43,43,43,40,40,40,87,87,87,29.47,29.12,9,1,9,0.00
2013-12-2,43,43,43,40,40,40,87,87,87,29.14,28.91,9,1,9,0.00
2013-12-3,43,43,43,40,40,40,87,87,87,29.09,28.97,11,2,11,0.00
2013-12-4,43,43,43,40,40,40,87,87,87,29.20,29.09,12,2,12,0.00
2013-12-5,43,43,43,40,40,40,87,87,87,29.26,29.14,19,4,19,0.00
2013-12-6,43,43,43,40,40,40,87,87,87,29.20,29.12,27,6,27,0.00
2013-12-7,43,43,43,40,40,40,87,87,87,29.53,29.12,18,6,18,0.00
2013-12-8,43,43,43,40,40,40,87,87,87,29.53,29.38,17,4,17,0.00
2013-12-9,43,26,0,40,24,0,87,53,87,29.38,29.14,8,1,8,0.00
2013-12-10,54,36,0,44,21,-3,93,47,19,29.44,29.00,14,3,14,0.00
2013-12-11,52,39,27,14,6,-1,45,27,16,29.53,29.35,10,2,10,0.00
2013-12-12,49,38,31,12,1,-6,37,21,16,29.50,29.35,13,4,13,0.00
2013-12-13,54,40,28,8,0,-7,23,18,15,29.47,29.35,11,2,11,0.00
2013-12-14,46,42,38,40,22,2,87,55,18,29.38,28.91,21,4,204,0.00
2013-12-15,38,38,38,35,35,35,87,87,87,29.17,28.85,12,5,12,0.00
2013-12-16,38,38,38,35,35,35,87,87,87,29.26,29.14,10,4,10,0.00
2013-12-17,38,38,38,35,35,35,87,87,87,29.23,29.00,16,5,16,0.00
2013-12-18,38,24,0,35,22,0,87,56,87,29.38,29.12,14,3,14,0.00
2013-12-19,0,0,0,0,0,0,0,0,100,29.41,29.29,20,4,20,0.00
2013-12-20,0,0,0,0,0,0,0,0,100,29.35,29.23,16,3,16,0.00
2013-12-21,0,0,0,0,0,0,0,0,100,29.26,29.14,30,4,30,0.00
2013-12-22,0,0,0,0,0,0,0,0,100,29.20,29.12,26,6,26,0.00
2013-12-23,0,0,0,0,0,0,0,0,100,29.29,29.12,17,4,17,0.00
2013-12-24,0,0,0,0,0,0,0,0,100,29.53,29.23,15,6,15,0.00
2013-12-25,0,0,0,0,0,0,0,0,100,29.62,29.47,12,3,12,0.00
2013-12-26,0,0,0,0,0,0,0,0,100,29.47,29.32,10,3,10,0.00
2013-12-27,0,0,0,0,0,0,0,0,100,29.56,29.41,10,2,10,0.00
2013-12-28,0,0,0,0,0,0,0,0,100,29.50,29.26,0,0,0,0.00
2013-12-29,0,0,0,0,0,0,0,0,100,29.26,28.85,0,0,0,0.00
2013-12-30,0,0,0,0,0,0,0,0,100,29.23,29.00,5,0,5,0.00
2013-12-31,0,0,0,0,0,0,0,0,100,29.44,29.20,14,4,14,0.00
2014-1-1,0,0,0,0,0,0,0,0,100,29.50,29.23,15,2,15,0.00
2014-1-2,0,0,0,0,0,0,0,0,100,29.26,28.70,10,3,10,0.00